[[{"header":{"parameterUnit":"m.s-1","parameterCategory":1,"la1":30.2991,"la2":30.254,"lo1":-89.0895,"lo2":-89.0444,"dy":0.0017,"dx":0.0017,"nx":28,"ny":28,"refTime":"2024-04-27T21:00:00:Z","depth":0,"parameterNumber":2,"parameterNumberName":"U-component_of_WINDS"},"data":[0,0,0,0,0,0,0,0,0,0,0,0,0,0,0,0,0,0,0,0,0,0,0,0,0,0,0,0,0,0,0,0,0,0,0,0,0,0,0,0,0,0,0,0,0,0,0,0,0,0,0,0,0,0,0,0,0,0,-6.3889,-6.389,0,-6.4018,-6.4019,-6.402,-6.3981,-6.3978,-6.3975,-6.3973,-6.4101,-6.4107,-6.4113,0,0,0,0,0,0,0,0,0,0,0,0,0,-6.3605,-6.3611,-6.3889,-6.389,-6.3892,-6.4017,-6.4019,-6.4021,-6.3981,-6.3978,-6.3975,-6.3972,-6.4099,-6.4106,-6.4113,0,0,0,0,0,0,0,0,0,0,0,0,0,-6.3731,-6.3613,-6.3888,-6.3887,-6.3889,-6.4017,-6.4019,-6.4021,-6.3982,-6.3978,-6.3974,-6.397,-6.4097,-6.4106,-6.4114,-6.4251,0,0,-6.4142,-6.4146,0,0,0,0,0,0,0,0,-6.3724,-6.3741,-6.3886,-6.3888,-6.3889,-6.3979,-6.3966,-6.4098,-6.3983,-6.3946,-6.3973,-6.3968,-6.4064,-6.4075,-6.4108,-6.4257,-6.4262,-6.4142,-6.4148,-6.4152,-6.4154,0,0,0,0,0,0,0,-6.3715,-6.3735,-6.394,-6.3888,-6.389,-6.3879,-6.3893,-6.3991,-6.4026,-6.3949,-6.3947,-6.3963,-6.4064,-6.41,-6.4111,-6.4264,-6.4142,-6.415,-6.4156,-6.4159,-6.4529,-6.4534,0,0,0,0,0,0,-6.3706,-6.3728,-6.3935,-6.3943,-6.3795,-6.3888,-6.3903,-6.3954,-6.4025,-6.4032,-6.3966,-6.396,-6.4086,-6.41,-6.4115,-6.4277,-6.4152,-6.416,-6.4165,-6.4525,-6.453,-6.4535,0,0,0,0,0,0,-6.37,-6.3725,-6.393,-6.3835,-6.3861,-6.3897,-6.3955,-6.3959,-6.3995,-6.4038,-6.4043,-6.3996,-6.4084,-6.4103,-6.4217,-6.4281,-6.4164,-6.4172,-6.452,-6.4527,-6.4533,-6.4604,0,0,0,0,0,0,-6.3692,-6.3723,-6.3775,-6.3837,-6.3866,-6.4031,-6.3959,-6.3964,-6.401,-6.4004,-6.4067,-6.4074,-6.4082,-6.4204,-6.4226,-6.4291,-6.4179,-6.4514,-6.4523,-6.4531,-6.4596,-6.4612,-6.4626,0,0,0,0,0,-6.3682,-6.379,-6.3778,-6.3803,-6.3933,-6.4035,-6.4051,-6.4059,-6.4016,-6.4068,-6.4096,-6.4072,-6.4272,-6.4216,-6.424,-6.4309,-6.451,-6.452,-6.453,-6.4589,-6.4609,-6.4626,0,0,0,0,0,0,-6.3733,-6.3798,-6.3786,-6.3917,-6.3971,-6.4028,-6.4094,-6.408,-6.4147,-6.4138,-6.4144,-6.4159,-6.4276,-6.4305,-6.4242,-6.4444,-6.4384,-6.44,-6.4421,-6.444,-6.4455,-6.4444,-6.4186,0,0,0,0,0,-6.376,-6.3839,-6.3891,-6.4001,-6.4029,-6.4058,-6.4102,-6.4104,-6.416,-6.4182,-6.4218,-6.4272,-6.4347,-6.4395,-6.4467,-6.4601,-6.4613,-6.4661,-6.4676,-6.4688,-6.47,-6.4771,-6.4792,-6.4568,-6.4568,-6.4568,0,0,-6.3816,-6.3861,-6.391,-6.4013,-6.4055,-6.4135,-6.4077,-6.4164,-6.4223,-6.4195,-6.4304,-6.4333,-6.4394,-6.4519,-6.4575,-6.4546,-6.4765,-6.4701,-6.471,-6.4716,-6.4784,-6.4805,-6.4824,-6.4575,-6.4574,-6.4573,0,0,-6.3957,-6.4001,-6.4097,-6.4141,-6.4205,-6.4224,-6.4247,-6.4307,-6.4325,-6.4436,-6.4416,-6.4487,-6.4616,-6.4659,-6.4698,-6.4858,-6.4837,-6.4882,-6.4959,-6.5028,-6.5046,-6.5062,-6.5116,-6.5136,-6.4894,-6.4894,-6.4895,0,-6.4018,-6.4138,-6.4148,-6.4237,-6.4282,-6.4262,-6.4358,-6.44,-6.4485,-6.4516,-6.4483,-6.4644,-6.4684,-6.4817,-6.4857,-6.489,-6.4915,-6.4872,-6.5043,-6.5059,-6.5073,-6.5125,-6.5146,-6.4899,-6.4899,-6.4898,-6.4898,0,-6.4208,-6.4292,-6.4362,-6.4445,-6.4498,-6.4591,-6.4613,-6.4666,-6.4664,-6.4685,-6.4798,-6.4846,-6.4925,-6.4958,-6.4956,-6.5092,-6.5071,-6.5041,-6.498,-6.5099,-6.5148,-6.5168,-6.4906,-6.4904,-6.4903,-6.4902,0,0,-6.4382,-6.4471,-6.4496,-6.4533,-6.4604,-6.4668,-6.476,-6.4839,-6.4883,-6.4943,-6.5018,-6.5129,-6.5101,-6.5146,-6.5149,-6.5211,-6.5331,-6.5173,-6.5174,-6.5198,-6.5481,-6.55,-6.5523,-6.532,-6.5324,-6.5327,-6.5474,0,-6.4527,-6.4688,-6.47,-6.4845,-6.4921,-6.4905,-6.4984,-6.5036,-6.5059,-6.5127,-6.5152,-6.5229,-6.5189,-6.5215,-6.5276,-6.5304,-6.5388,-6.5294,-6.5387,-6.5391,-6.5369,-6.5549,-6.557,-6.5707,-6.5494,-6.5497,-6.5499,0,-6.4717,-6.4783,-6.4936,-6.4996,-6.5028,-6.5099,-6.5172,-6.5239,-6.5297,-6.5309,-6.536,-6.5355,-6.5447,-6.5386,-6.5513,-6.5449,-6.5488,-6.5508,-6.5514,-6.552,-6.5449,-6.5556,-6.5751,-6.577,-6.553,-6.5528,-6.5525,0,-6.4825,-6.4953,-6.506,-6.5093,-6.5166,-6.5216,-6.5249,-6.5303,-6.535,-6.5414,-6.5444,-6.5519,-6.5558,-6.5616,-6.563,-6.5585,-6.5756,-6.5696,-6.5767,-6.5766,-6.58,-6.5797,-6.6,-6.5832,-6.5832,-6.5831,-6.5831,0,-6.4984,-6.5077,-6.5109,-6.5175,-6.5279,-6.5292,-6.5394,-6.5423,-6.5472,-6.5542,-6.5534,-6.5599,-6.5617,-6.5686,-6.5699,-6.58,-6.5819,-6.583,-6.5832,-6.5829,-6.5827,-6.5852,-6.5842,-6.5837,-6.5836,-6.5835,-6.5834,0,-6.512,-6.5146,-6.5262,-6.5322,-6.534,-6.5413,-6.5464,-6.5527,-6.555,-6.5639,-6.566,-6.5696,-6.5777,-6.5798,-6.5895,-6.5904,-6.6022,-6.6017,-6.6002,-6.6001,-6.6069,-6.6061,-6.6292,-6.6322,-6.6138,-6.6139,-6.6141,0,-6.5218,-6.529,-6.5358,-6.5405,-6.544,-6.5516,-6.5563,-6.558,-6.563,-6.5702,-6.5755,-6.5835,-6.5899,-6.6029,-6.6063,-6.6137,-6.6131,-6.6207,-6.6141,-6.6136,-6.6128,-6.6122,-6.6128,-6.6218,-6.622,-6.6221,-6.6223,0,-6.5388,-6.5397,-6.5467,-6.5542,-6.56,-6.5659,-6.5716,-6.5755,-6.5779,-6.5836,-6.5919,-6.5969,-6.6068,-6.6147,-6.6221,-6.6254,-6.6242,-6.6244,-6.6263,-6.6259,-6.6247,-6.6251,-6.6032,-6.6237,-6.6236,-6.6235,-6.6234,-6.6233,-6.5506,-6.5568,-6.5626,-6.5704,-6.5749,-6.5802,-6.5864,-6.5895,-6.5965,-6.6047,-6.6052,-6.6142,-6.6198,-6.6297,-6.6334,-6.6404,-6.6381,-6.641,-6.6416,-6.6423,-6.6427,-6.6239,-6.6418,-6.6417,-6.6417,-6.6417,-6.6416,0,-6.5672,-6.5709,-6.5781,-6.5861,-6.5923,-6.5909,-6.5971,-6.6022,-6.6101,-6.6156,-6.622,-6.6314,-6.6391,-6.6432,-6.6508,-6.6555,-6.6552,-6.6574,-6.6569,-6.6576,-6.6444,-6.6418,-6.6576,-6.6576,-6.6576,-6.6576,-6.6576,-6.6576,-6.5766,-6.587,-6.5886,-6.6012,-6.6048,-6.6136,-6.6172,-6.6221,-6.6264,-6.6371,-6.6435,-6.6461,-6.651,-6.6589,-6.6659,-6.6669,-6.6695,-6.6721,-6.6727,-6.6602,-6.6586,-6.657,-6.6546,-6.6727,-6.6728,-6.6853,-6.6854,-6.6855]},{"header":{"parameterUnit":"m.s-1","parameterCategory":1,"la1":30.2991,"la2":30.254,"lo1":-89.0895,"lo2":-89.0444,"dy":0.0017,"dx":0.0017,"nx":28,"ny":28,"refTime":"2024-04-27T21:00:00:Z","depth":0,"parameterNumber":3,"parameterNumberName":"V-component_of_WINDS"},"data":[0,0,0,0,0,0,0,0,0,0,0,0,0,0,0,0,0,0,0,0,0,0,0,0,0,0,0,0,0,0,0,0,0,0,0,0,0,0,0,0,0,0,0,0,0,0,0,0,0,0,0,0,0,0,0,0,0,0,5.6334,5.6334,0,5.639,5.639,5.6391,5.6332,5.633,5.6328,5.6326,5.6378,5.6381,5.6385,0,0,0,0,0,0,0,0,0,0,0,0,0,5.6172,5.6175,5.6334,5.6334,5.6335,5.639,5.639,5.6391,5.6333,5.633,5.6327,5.6325,5.6377,5.6381,5.6385,0,0,0,0,0,0,0,0,0,0,0,0,0,5.6236,5.6176,5.6334,5.6313,5.6311,5.639,5.639,5.6391,5.6333,5.633,5.6327,5.6323,5.6375,5.638,5.6386,5.6485,0,0,5.6401,5.6404,0,0,0,0,0,0,0,0,5.6233,5.6242,5.6315,5.6314,5.6313,5.6351,5.6352,5.6423,5.6334,5.6325,5.6326,5.6322,5.6371,5.6377,5.6394,5.6488,5.649,5.6402,5.6405,5.6407,5.6409,0,0,0,0,0,0,0,5.6228,5.6239,5.6356,5.6316,5.6315,5.6299,5.6304,5.6365,5.6366,5.6325,5.6321,5.6329,5.637,5.6389,5.6395,5.6491,5.6402,5.6406,5.641,5.6412,5.6669,5.6672,0,0,0,0,0,0,5.6227,5.6236,5.6354,5.6357,5.6264,5.6305,5.6311,5.6342,5.6365,5.6366,5.6332,5.6326,5.6382,5.6389,5.6397,5.6515,5.6407,5.6412,5.6415,5.6665,5.667,5.6674,0,0,0,0,0,0,5.6223,5.6238,5.6352,5.6296,5.6309,5.6311,5.6347,5.6345,5.6364,5.637,5.637,5.6352,5.638,5.6389,5.6464,5.6516,5.6415,5.6419,5.6661,5.6667,5.6672,5.6752,0,0,0,0,0,0,5.6219,5.6237,5.6276,5.6297,5.6312,5.642,5.635,5.6348,5.6374,5.6367,5.6389,5.6389,5.6378,5.6457,5.6469,5.6521,5.6423,5.6656,5.6663,5.667,5.6744,5.6759,5.6772,0,0,0,0,0,5.6213,5.6295,5.6278,5.6293,5.6361,5.6423,5.6431,5.6418,5.6379,5.6417,5.6421,5.6388,5.6509,5.6465,5.6479,5.6532,5.6653,5.6661,5.6669,5.6738,5.6756,5.6772,0,0,0,0,0,0,5.6277,5.6297,5.6279,5.637,5.6396,5.6413,5.6461,5.6438,5.6473,5.6465,5.6445,5.6451,5.653,5.6539,5.649,5.663,5.6574,5.6585,5.6621,5.6639,5.6652,5.6648,5.6428,0,0,0,0,0,5.6303,5.6353,5.6367,5.6446,5.646,5.6459,5.6485,5.6473,5.6497,5.6507,5.6516,5.654,5.6583,5.6612,5.6652,5.6746,5.6749,5.679,5.6804,5.6815,5.6825,5.6875,5.6893,5.6701,5.6701,5.6701,0,0,5.6354,5.6371,5.6403,5.6459,5.6477,5.6528,5.6468,5.6524,5.656,5.6515,5.6586,5.6595,5.662,5.6705,5.6743,5.6714,5.6879,5.6826,5.6835,5.6838,5.6885,5.6903,5.6919,5.6707,5.6706,5.6705,0,0,5.6473,5.6492,5.656,5.658,5.661,5.6609,5.6625,5.6647,5.6651,5.6723,5.669,5.6733,5.6807,5.6827,5.6846,5.6976,5.6947,5.6989,5.706,5.7109,5.7124,5.7138,5.7182,5.7199,5.6999,5.6999,5.6999,0,5.6533,5.661,5.6597,5.6656,5.6681,5.6645,5.6713,5.6732,5.6773,5.679,5.6759,5.6852,5.6866,5.6955,5.6987,5.7005,5.7022,5.6985,5.7124,5.7137,5.7149,5.7191,5.7208,5.7004,5.7003,5.7003,5.7003,0,5.6681,5.6735,5.6786,5.6828,5.6859,5.6922,5.6918,5.695,5.6936,5.6938,5.7012,5.7028,5.7071,5.7091,5.7077,5.7179,5.716,5.7127,5.7069,5.7172,5.7212,5.7228,5.7011,5.7009,5.7008,5.7007,0,0,5.684,5.6876,5.6895,5.6914,5.6944,5.6985,5.7046,5.709,5.7118,5.7147,5.7197,5.7262,5.7232,5.7254,5.7242,5.7285,5.7386,5.7246,5.7247,5.727,5.7497,5.7521,5.754,5.7368,5.7371,5.7373,5.7494,0,5.6959,5.7068,5.7059,5.716,5.7209,5.7177,5.723,5.7254,5.7258,5.7298,5.7302,5.7348,5.7305,5.7318,5.736,5.7365,5.743,5.7356,5.7412,5.7414,5.7405,5.7561,5.7586,5.7699,5.751,5.7512,5.7514,0,5.7113,5.715,5.7257,5.7281,5.7301,5.7349,5.7389,5.7429,5.7455,5.7455,5.7481,5.7462,5.7522,5.7466,5.7548,5.7497,5.752,5.7526,5.753,5.7533,5.7469,5.7566,5.7735,5.7752,5.7539,5.7537,5.7535,0,5.7216,5.7293,5.7367,5.7384,5.7414,5.7449,5.7462,5.7486,5.7513,5.7547,5.7564,5.7605,5.7626,5.7657,5.7649,5.7609,5.7733,5.7676,5.7733,5.7733,5.7759,5.7757,5.7932,5.7777,5.7776,5.7776,5.7776,0,5.7349,5.7416,5.7414,5.7459,5.7532,5.7522,5.7594,5.7603,5.7625,5.767,5.7644,5.7687,5.7675,5.7717,5.7711,5.7779,5.7789,5.779,5.7787,5.7791,5.7791,5.7804,5.7795,5.7781,5.778,5.7779,5.7778,0,5.7477,5.7478,5.7557,5.758,5.7587,5.764,5.7659,5.7701,5.7704,5.7761,5.7774,5.7778,5.7826,5.7822,5.7876,5.7872,5.7956,5.7945,5.7948,5.7945,5.8002,5.7996,5.819,5.8214,5.8045,5.8046,5.8048,0,5.7561,5.7611,5.7641,5.767,5.7687,5.7735,5.7763,5.7755,5.7785,5.7819,5.7857,5.7903,5.794,5.8018,5.8024,5.8065,5.8054,5.8119,5.806,5.8062,5.8053,5.805,5.8054,5.813,5.8132,5.8134,5.8135,0,5.7709,5.7708,5.7751,5.7794,5.7829,5.7862,5.7892,5.7918,5.7912,5.7947,5.7997,5.8026,5.8082,5.8128,5.8167,5.8179,5.8156,5.8154,5.8169,5.8173,5.8172,5.8172,5.7978,5.8149,5.8148,5.8147,5.8146,5.8145,5.7816,5.786,5.7888,5.7936,5.7958,5.7988,5.8029,5.8038,5.808,5.8126,5.8118,5.8174,5.8199,5.825,5.8267,5.8309,5.8285,5.8308,5.8313,5.8318,5.8324,5.8167,5.8316,5.8316,5.8316,5.8315,5.8315,0,5.7962,5.7979,5.8024,5.8068,5.8106,5.8084,5.8116,5.8149,5.8199,5.8226,5.8263,5.832,5.8365,5.8376,5.8419,5.8451,5.8441,5.8462,5.8459,5.8462,5.8344,5.8326,5.8469,5.8469,5.8469,5.8469,5.8469,5.8469,5.8043,5.8115,5.8117,5.8201,5.8216,5.8273,5.8293,5.832,5.8341,5.8407,5.8445,5.8452,5.8472,5.8516,5.8556,5.8558,5.8574,5.8599,5.8597,5.8486,5.847,5.8455,5.8438,5.8603,5.8604,5.8711,5.8712,5.8713]}]]